This is the latest recevied weather packets stored in our database for station/object R2AKT-13. If no packets are shown the sender has not sent any weather packets the latest 10 day(s).
| Time | Temp. | Humidity | Pressure | Rain* | Wind** | Luminosity | Snow |
|---|---|---|---|---|---|---|---|
| 1788081311 | 20.56° C | 47% | 996.5 hPa | - | 3.13 m/s, 172° | - | - |
| 1788080716 | 20° C | 47% | 996.6 hPa | - | 3.58 m/s, 188° | - | - |
| 1788080221 | 20° C | 48% | 996.7 hPa | - | 4.92 m/s, 181° | - | - |
| 1788079696 | 20° C | 48% | 996.7 hPa | - | 4.02 m/s, 178° | - | - |
| 1788079161 | 19.44° C | 48% | 996.8 hPa | - | 4.47 m/s, 174° | - | - |
| 1788078631 | 19.44° C | 49% | 996.9 hPa | - | 3.58 m/s, 174° | - | - |
| 1788078111 | 19.44° C | 49% | 997 hPa | - | 1.79 m/s, 182° | - | - |
| 1788077546 | 19.44° C | 50% | 997 hPa | - | 1.34 m/s, 185° | - | - |
| 1788077021 | 18.89° C | 52% | 997 hPa | - | 1.34 m/s, 202° | - | - |
| 1788076506 | 18.89° C | 52% | 997.1 hPa | - | 3.13 m/s, 177° | - | - |
| 1788075966 | 18.33° C | 54% | 997.3 hPa | - | 2.68 m/s, 198° | - | - |
| 1788075446 | 18.33° C | 53% | 997.3 hPa | - | 3.13 m/s, 183° | - | - |
| 1788074861 | 18.33° C | 54% | 997.4 hPa | - | 2.24 m/s, 181° | - | - |
| 1788074266 | 18.33° C | 54% | 997.4 hPa | - | 2.68 m/s, 170° | - | - |
| 1788073746 | 17.78° C | 53% | 997.3 hPa | - | 2.24 m/s, 184° | - | - |
| 1788073206 | 17.78° C | 53% | 997.3 hPa | - | 1.34 m/s, 201° | - | - |
| 1788072716 | 17.22° C | 56% | 997.5 hPa | - | 1.79 m/s, 174° | - | - |
| 1788072191 | 17.22° C | 55% | 997.5 hPa | - | 3.13 m/s, 188° | - | - |
| 1788071631 | 17.22° C | 55% | 997.6 hPa | - | 1.34 m/s, 182° | - | - |
| 1788071146 | 17.22° C | 55% | 997.5 hPa | - | 2.24 m/s, 167° | - | - |
| 1788070631 | 16.67° C | 56% | 997.7 hPa | - | 1.79 m/s, 186° | - | - |
| 1788070056 | 16.11° C | 57% | 997.7 hPa | - | 3.13 m/s, 180° | - | - |
| 1788069491 | 16.11° C | 57% | 997.8 hPa | - | 2.24 m/s, 166° | - | - |
| 1788068996 | 15.56° C | 59% | 997.9 hPa | - | 1.34 m/s, 174° | - | - |
| 1788068461 | 15.56° C | 59% | 997.9 hPa | - | 2.68 m/s, 173° | - | - |
* Rain since midnight (hover to see other rain measurements)
** Current wind speed in m/s (hover to see current wind gust speed)